Hourly Data Report for October 02, 2014

All times are specified in Local Standard Time (LST). Add 1 hour to adjust for Daylight Saving Time where and when it is observed.

TORONTO INTL A
ONTARIO

43°40'36.000" N
79°37'50.000" W
173.40 m
6158731
71624
YYZ

Download Data

Hourly Data (October 2014)
Hourly Data Report for October 2, 2014
Temp Definition
°C
Dew Point Temp Definition
°C
Rel Hum Definition
%
Wind Dir Definition
10's deg

Wind Spd Definition
km/h
Visibility Definition
km
Stn Press Definition
kPa
Hmdx Definition


Wind Chill Definition


Weather Definition


TIME
00:00 Legend Double Dagger 15.4 13.8 90 11 8 9.7 99.82     Fog
01:00 Legend Double Dagger 15.3 13.9 91 8 5 9.7 99.83     Fog
02:00 Legend Double Dagger 14.8 13.7 93 36 1 9.7 99.84     Fog
03:00 Legend Double Dagger 14.8 13.7 93 9 8 9.7 99.78     Fog
04:00 Legend Double Dagger 14.9 13.8 93 9 12 9.7 99.78     Fog
05:00 Legend Double Dagger 15.2 13.9 92 36 2 6.4 99.82     Fog
06:00 Legend Double Dagger 15.6 14.3 92 10 8 6.4 99.80     Fog
07:00 Legend Double Dagger 15.8 14.4 91 10 12 6.4 99.81     Fog
08:00 Legend Double Dagger 16.1 14.5 90 12 7 6.4 99.87     Fog
09:00 Legend Double Dagger 16.6 14.5 87 11 13 8.1 99.86     Fog
10:00 Legend Double Dagger 16.9 14.6 86 10 17 8.1 99.83     Fog
11:00 Legend Double Dagger 17.4 15.1 86 14 14 9.7 99.78     Fog
12:00 Legend Double Dagger 17.1 14.2 83 11 15 9.7 99.78     Fog
13:00 Legend Double Dagger 17.4 14.5 83 36 2 9.7 99.77     Fog
14:00 Legend Double Dagger 18.7 15.0 79 0 1 12.9 99.74     LegendNANA
15:00 Legend Double Dagger 19.5 15.2 76 11 12 12.9 99.64     LegendNANA
16:00 Legend Double Dagger 18.3 14.8 80 13 13 12.9 99.58     Mostly Cloudy
17:00 Legend Double Dagger 17.5 14.8 84 15 10 9.7 99.62     Fog
18:00 Legend Double Dagger 15.8 14.5 92 15 6 9.7 99.61     Fog
19:00 Legend Double Dagger 15.6 14.2 91 12 15 9.7 99.59     Fog
20:00 Legend Double Dagger 15.2 14.1 93 13 8 9.7 99.58     Fog
21:00 Legend Double Dagger 14.8 13.9 94 9 4 12.9 99.53     LegendNANA
22:00 Legend Double Dagger 15.0 14.1 94 36 3 12.9 99.47     Mostly Cloudy
23:00 Legend Double Dagger 15.6 14.5 93 11 9 12.9 99.36     LegendNANA

Notes on Data Quality.

Legend

  • E = Estimated
  • M = Missing
  • NA = Not Available
  • ‡ = Partner data that is not subject to review by the National Climate Archives
Date modified: